ARIANE 42P DEB, 44509

Orbit data source: Space-Track

ARIANE 42P DEB, 44509 is space debris in LEO originally from a launch on Mon, 10 Aug 1992 UTC launched from the French Guiana (FRGUI). Debris objects in space refer to the collection of defunct objects orbiting the Earth. Examples of debris include non-operational satellites, rocket bodies, and fragments generated from explosions, collisions, or faulty payload assembly.

Loading next visibility...
Identifier
44509, 1992-052G
Orbit
LEO
Country
Flag of FRFR
Related business
Manufacturer
ArianeGroup
Mission
Spacecraft
Bus & Motor
Unknown
Mass
Unknown
Launch date (UTC)
1992-08-10 (33 years ago)
Launch vehicle
Unknown
Launch site
French Guiana (FRGUI)
Object type
Payload
Rocket body
Debris
Shape & HBR
Unknown
Radar Cross Section
Small (<0.1 m²)

Expand to show TLE details & history
Last TLE update: 22 hours ago

TLE from 22 hours ago
0 ARIANE 42P DEB
1 44509U 92052G   25260.03828667  .00004085  00000-0  16919-1 0  9999
2 44509  66.0844 136.7381 0067439  49.8379 310.8518 12.84632884284859
Epoch: 2025-09-17T00:55Z
TLE epoch observation values (Epoch: 2025-09-17T00:55:07.968Z)
Latitude
-0°
Longitude
126.73493°
Altitude
1,291.043 km
Speed
7.227 km/s
True Right ascension
09h 06m 57s
True Declination
0° 00' 00"
Sunlit
Object was in daylight at epoch
Visualization orbit readout
Latitude
Unknown
Longitude
Unknown
Altitude
Unknown
Speed
Unknown
Apparent Right ascension
Unknown
Apparent Declination
Unknown
Sunlit
N/A
Visualization observer readout
Local Sidereal Time
15:41:14
Azimuth
Unknown
Elevation
Unknown
Doppler factor
Unknown
Orbital elements
Apogee altitude
1,373.379 km
Perigee altitude
1,269.529 km
Semi-major axis
7,699.591 km
Eccentricity
0.00674
Inclination
66.0844°
RAAN
136.7381°
Arg. of periapsis
49.8379°
True anomaly
310.26403°
Mean anomaly
310.8518°
Eccentric anomaly
310.55824°
Mean motion
3.21249 °/min
Orbital period
112.06 mins
BSTAR
0.016919
Loading maneuver chart data...
Computing Atmospheric mass density...
Loading historical data...
Loading historical data...
Loading historical data...
Loading historical data...
Loading historical data...
Loading historical data...
Loading historical data...

Documentation

Showing up to 5 results
|